FW4763 Weather Reports


time (UTC)temp
C
wind
direction
speed
KPH
gust
KPH
rain 1hr
cm
rain 24hr
cm
rain mn
cm
humidity
%
barometer
mb
20260506110044 10 213 12.9 30.6 0.00 0.00 0.00 95 1015.0
20260506104542 10 170 22.5 32.2 0.00 0.00 0.00 95 1015.0
20260506103040 10 224 20.9 30.6 0.00 0.00 0.00 95 1015.0
20260506101537 9 175 19.3 30.6 0.00 0.00 0.00 96 1014.9
20260506100038 8 231 17.7 35.4 0.00 0.00 0.00 97 1014.9
20260506094536 8 185 19.3 30.6 0.00 0.00 0.00 97 1014.8
20260506093035 8 209 19.3 30.6 0.00 0.00 0.00 97 1014.7
20260506091534 7 199 12.9 22.5 0.00 0.00 0.00 97 1014.6
20260506090032 7 216 14.5 22.5 0.00 0.00 0.00 97 1014.4
20260506084531 7 232 14.5 24.1 0.00 0.00 0.00 97 1014.4
20260506083032 7 220 12.9 27.4 0.00 0.00 0.00 97 1014.3
20260506081532 7 151 14.5 25.7 0.00 0.00 0.00 97 1013.9
20260506073029 6 156 12.9 29.0 0.00 0.00 0.00 97 1013.9
20260506071526 6 175 16.1 25.7 0.00 0.00 0.00 96 1013.9
20260506061525 6 180 9.7 24.1 0.00 0.00 0.00 94 1013.9
20260506044501 8 185 9.7 16.1 0.00 0.00 0.00 91 1013.7
20260506043102 8 171 12.9 19.3 0.00 0.00 0.00 91 1013.7
20260506041603 9 210 11.3 19.3 0.00 0.00 0.00 91 1013.7
20260506040056 9 185 6.4 14.5 0.00 0.00 0.00 92 1013.6
20260506034559 9 230 12.9 20.9 0.00 0.00 0.00 92 1013.6
20260506033052 9 193 12.9 20.9 0.00 0.00 0.00 92 1013.6
20260506031548 9 185 11.3 22.5 0.00 0.00 0.00 92 1013.5
20260506030045 9 202 12.9 29.0 0.00 0.00 0.00 92 1013.7
20260506024551 9 218 14.5 30.6 0.00 0.00 0.00 92 1013.5
20260506023044 9 233 12.9 24.1 0.00 0.00 0.00 90 1013.6
20260506021544 9 199 11.3 24.1 0.00 0.00 0.00 89 1013.5
20260506020050 10 205 8.0 19.3 0.00 0.00 0.00 89 1013.6
20260506014542 10 208 9.7 22.5 0.00 0.00 0.00 87 1013.7
20260506013041 10 209 9.7 24.1 0.00 0.00 0.00 85 1013.6
20260506011601 11 226 8.0 25.7 0.00 0.00 0.00 83 1013.4
20260506010040 11 150 12.9 24.1 0.00 0.00 0.00 81 1013.4
20260506004552 12 198 8.0 24.1 0.00 0.00 0.00 80 1013.2
20260506003035 12 252 8.0 20.9 0.00 0.00 0.00 78 1012.8
20260506001536 12 175 11.3 24.1 0.00 0.00 0.00 77 1012.6
20260506000051 12 232 8.0 19.3 0.00 0.00 0.00 76 1012.5
20260505234539 12 185 12.9 22.5 0.00 0.00 0.00 75 1012.3
20260505233028 14 171 11.3 19.3 0.00 0.00 0.00 68 1012.0
20260505231526 14 210 11.3 25.7 0.00 0.00 0.00 67 1011.7
20260505230046 15 215 9.7 20.9 0.00 0.00 0.00 66 1011.4
20260505224535 14 190 8.0 19.3 0.00 0.00 0.00 67 1011.3
20260505223025 13 163 11.3 20.9 0.00 0.00 0.00 65 1011.4
20260505221522 13 185 11.3 20.9 0.00 0.00 0.00 65 1011.1
20260505220020 14 185 12.9 24.1 0.00 0.00 0.00 63 1010.9
20260505214523 13 170 11.3 24.1 0.00 0.00 0.00 65 1010.8
20260505213023 13 207 12.9 32.2 0.00 0.00 0.00 66 1010.7
20260505211526 12 175 20.9 32.2 0.00 0.00 0.00 66 1010.7
20260505210017 13 175 17.7 29.0 0.00 0.00 0.00 67 1010.8
20260505204517 13 180 16.1 30.6 0.00 0.00 0.00 64 1010.7
20260505203016 12 180 19.3 30.6 0.00 0.00 0.00 66 1010.6
20260505201515 15 180 17.7 30.6 0.00 0.00 0.00 61 1010.5
20260505200014 16 209 19.3 30.6 0.00 0.00 0.00 60 1010.5
20260505194515 15 185 19.3 35.4 0.00 0.00 0.00 62 1010.4
20260505193018 15 193 17.7 32.2 0.00 0.00 0.00 62 1010.4
20260505191514 16 175 19.3 32.2 0.00 0.00 0.00 60 1010.3
20260505190013 15 210 17.7 35.4 0.00 0.00 0.00 62 1010.1
20260505184518 16 201 19.3 32.2 0.00 0.00 0.00 60 1010.1
20260505183016 17 193 17.7 33.8 0.00 0.00 0.00 58 1009.9
20260505181509 17 244 14.5 30.6 0.00 0.00 0.00 60 1010.0
20260505180006 15 185 16.1 30.6 0.00 0.00 0.00 63 1010.1
20260505174506 15 175 17.7 29.0 0.00 0.00 0.00 63 1010.2
20260505173002 15 195 16.1 30.6 0.00 0.00 0.00 66 1010.4
20260505171502 14 180 17.7 30.6 0.00 0.00 0.00 67 1010.5
20260505170100 14 196 17.7 29.0 0.00 0.05 0.00 67 1010.5
20260505164606 15 215 16.1 30.6 0.00 0.05 0.00 66 1010.7
20260505163058 14 200 16.1 32.2 0.00 0.05 0.00 66 1010.6
20260505161602 13 212 20.9 32.2 0.00 0.05 0.00 67 1010.6
20260505153054 14 185 16.1 29.0 0.00 0.28 0.00 66 1010.9
20260505151550 12 166 16.1 29.0 0.00 0.28 0.00 72 1010.7
20260505150108 11 227 11.3 25.7 0.00 0.46 0.00 74 1010.6
20260505124551 11 218 9.7 22.5 0.00 0.61 0.00 67 1010.9
20260505123050 13 270 12.9 24.1 0.00 0.61 0.00 65 1010.6
20260505121605 11 195 9.7 16.1 0.00 0.61 0.00 79 1010.4
20260505120033 8 166 8.0 17.7 0.00 0.61 0.00 82 1010.3
20260505114535 7 170 9.7 20.9 0.00 0.61 0.00 81 1010.3
20260505113032 7 180 12.9 22.5 0.00 0.61 0.00 82 1010.3
20260505111537 7 185 8.0 17.7 0.00 0.61 0.00 80 1010.3